RH
23 15 12 9 7 6 6 6 6 6 6 6 6 7 7 8 8 8 8 8 8 8 7 6 6 6 11 15 10 20 45 45 32
22 14 13 13 10 8 6 6 6 6 6 6 7 7 8 8 8 8 8 8 7 7 6 5 6 7 8 13 16 12 26 51 51
19 11 12 14 14 14 13 11 8 5 4 4 4 4 4 5 5 6 6 6 7 7 6 5 5 6 11 12 18 24 20 42 60
14 11 9 10 11 13 15 15 14 13 10 7 6 5 5 5 5 4 4 4 4 5 5 6 8 9 11 14 17 28 32 28 40
13 11 11 10 9 9 9 11 15 15 15 14 11 8 6 6 5 5 5 5 5 6 8 9 11 13 12 13 14 30 44 46 42
16 14 12 8 8 8 10 11 13 15 15 14 11 7 6 5 5 5 5 6 7 9 12 12 11 7 6 5 5 9 25 44 60
11 7 5 4 3 3 6 10 14 16 16 13 10 7 5 5 5 5 5 8 12 14 13 11 7 5 4 4 4 4 5 67 80
8 6 5 4 3 2 3 8 18 19 16 11 9 7 5 5 5 5 6 12 15 14 11 8 6 5 5 5 5 4 3 5 63
8 7 5 4 2 2 4 6 21 23 19 13 10 7 5 5 5 6 11 16 16 12 7 6 6 7 8 8 7 6 6 4 10
7 7 6 4 3 4 5 12 24 22 18 13 9 7 5 5 5 8 16 18 13 9 7 7 8 11 12 10 9 9 7 6 4
7 7 6 4 5 12 18 20 17 12 10 7 6 5 5 5 8 17 19 17 12 8 9 9 18 22 19 17 18 16 14 11 6
6 8 6 6 8 14 14 9 8 7 6 6 6 5 6 8 19 17 26 19 11 10 13 21 30 34 32 25 27 20 28 18 14
9 11 6 5 9 10 10 8 6 6 6 6 6 6 10 20 15 24 34 25 10 13 19 29 41 41 40 58 44 95 90 20 41
12 12 8 5 5 6 6 6 6 6 6 5 7 12 22 20 14 33 39 30 11 16 23 34 52 45 52 66 76 99 99 80 56
17 16 12 8 5 5 5 5 5 5 6 10 12 21 20 17 14 24 39 32 12 17 23 33 57 59 57 67 72 98 100 94 66
23 22 16 12 8 6 6 7 7 9 10 12 20 21 18 15 15 18 35 35 12 16 20 27 52 49 57 80 70 95 83 35 91
28 26 23 17 12 8 8 8 9 8 8 13 19 19 17 12 13 14 23 34 16 14 18 22 36 48 47 71 84 82 83 100 83
30 29 30 27 20 15 11 8 8 8 8 10 13 17 19 14 9 12 12 27 26 12 16 18 23 52 31 63 47 52 63 67 94
31 32 33 33 31 28 23 19 14 11 11 11 12 14 18 20 9 9 11 13 28 18 12 17 17 26 37 34 35 37 38 76 72
31 29 27 26 28 30 31 30 28 27 25 24 22 20 20 22 17 7 9 11 11 24 17 12 17 17 24 30 31 34 33 56 69
Wind_Speed
21 20 19 20 21 23 24 25 26 27 27 28 28 29 29 30 30 31 31 32 32 31 32 32 32 32 32 31 33 30 30 29 27
21 21 21 22 23 24 26 28 30 31 32 33 34 35 35 36 36 36 36 36 36 36 36 37 37 36 36 36 35 34 32 32 30
23 23 24 25 26 28 29 29 31 32 33 34 35 37 37 38 39 38 39 40 41 38 39 40 40 39 38 36 38 37 34 35 34
26 27 28 30 32 33 33 33 33 34 35 35 34 34 35 35 37 37 37 38 38 38 39 38 38 38 35 33 39 39 38 37 37
28 29 31 33 35 38 40 39 38 38 37 36 37 37 37 36 37 36 36 36 36 38 40 38 35 33 35 35 36 38 40 39 39
32 34 37 41 43 44 43 42 42 41 39 39 39 38 37 38 37 37 37 37 38 38 38 36 36 37 39 40 42 42 41 40 40
34 37 40 42 45 47 47 47 45 43 42 41 40 40 39 39 38 38 38 39 38 36 36 38 38 38 38 40 42 46 47 43 53
36 39 42 45 46 47 46 47 47 45 43 42 41 39 39 38 38 39 39 38 36 34 37 40 39 40 42 40 40 44 50 58 50
38 41 44 47 45 43 40 42 41 41 39 38 38 37 37 37 37 38 37 35 33 35 39 38 40 43 44 44 45 46 50 58 60
39 42 44 46 42 37 32 31 31 31 31 31 31 32 33 34 37 36 34 31 33 36 37 39 41 44 47 50 55 58 58 59 66
40 41 43 41 34 28 26 27 27 25 26 27 28 29 31 34 34 33 30 30 32 35 37 39 40 44 51 56 60 65 69 71 67
39 39 39 34 27 26 29 29 29 28 27 27 28 29 31 32 31 29 27 29 33 34 35 36 39 41 49 52 46 45 47 61 67
38 38 37 33 29 28 30 30 28 26 25 26 27 27 29 27 28 24 26 29 33 32 32 34 36 37 37 40 34 10 16 33 57
38 37 35 34 29 29 30 29 29 27 26 25 25 26 25 25 24 23 26 30 31 29 30 32 30 27 33 25 5 7 12 20 45
36 35 34 33 29 28 27 27 27 25 23 22 24 24 23 24 23 24 26 28 28 26 27 28 25 23 18 12 8 8 11 21 33
33 33 31 30 27 25 23 22 22 22 24 25 24 23 23 23 23 24 25 27 26 25 25 24 20 17 5 7 6 13 1 22 14
32 31 30 28 27 26 24 22 21 23 24 23 24 25 25 25 24 23 24 26 25 23 23 23 17 11 2 3 9 12 2 4 7
33 32 30 28 27 26 26 24 23 24 25 26 25 25 27 28 26 24 24 25 24 23 21 21 16 8 5 6 3 5 12 10 8
31 31 31 29 27 26 26 26 26 26 26 27 27 27 28 29 28 24 24 25 24 21 20 19 17 10 6 10 9 7 8 11 10
30 30 30 29 28 29 28 28 28 28 28 28 28 29 30 29 28 26 23 23 22 21 19 18 17 14 7 4 10 13 16 14 13
Wind_Direction
297 295 297 297 295 295 295 295 295 296 295 294 294 292 291 292 290 290 291 290 291 292 293 296 296 297 287 272 266 263 257 252 251
296 293 294 295 294 293 291 290 289 288 288 289 288 288 288 287 286 287 288 288 288 288 289 291 291 293 290 273 264 258 257 255 251
302 294 294 295 295 292 288 286 286 285 285 285 285 286 285 285 285 285 285 286 287 286 286 286 287 290 284 270 263 259 254 252 250
307 302 297 293 291 289 288 288 288 290 290 289 288 288 288 288 288 289 288 287 284 284 282 281 284 283 276 265 261 259 255 250 249
310 310 308 306 302 299 295 292 288 286 285 284 284 284 285 286 287 290 289 287 283 281 281 282 280 275 271 267 263 262 258 253 248
314 313 311 308 304 298 292 287 283 280 279 280 281 283 283 285 289 291 290 288 286 284 281 281 279 276 273 268 263 258 258 256 253
315 314 312 308 304 298 290 284 280 276 274 275 279 281 285 287 290 291 291 290 289 283 282 283 284 282 278 272 265 257 250 243 250
315 317 318 314 309 303 292 284 280 278 278 280 282 284 287 289 291 292 292 292 286 283 286 288 290 290 286 278 269 261 250 243 247
318 318 320 317 315 309 297 288 285 285 284 286 288 289 290 291 292 292 293 287 282 288 291 293 294 289 287 280 273 264 258 243 237
319 320 321 318 320 318 312 303 298 295 293 292 291 290 290 291 292 292 291 282 288 295 298 296 292 291 289 282 276 271 262 251 234
317 316 316 319 323 326 321 311 303 297 292 288 287 288 290 292 294 293 284 286 296 301 299 298 301 299 296 292 284 273 260 249 234
312 311 312 315 320 316 316 312 306 302 300 298 295 294 295 295 295 289 284 294 301 300 302 307 308 309 308 300 298 277 261 240 227
309 308 309 306 306 307 309 310 310 305 302 298 296 296 296 297 298 286 292 301 302 303 310 312 314 317 312 306 300 253 293 234 216
312 310 309 315 308 303 303 304 305 304 302 301 299 299 301 301 297 291 296 301 304 308 314 316 321 321 315 315 191 125 251 212 212
314 312 308 313 320 311 303 303 303 305 307 306 307 306 303 305 302 296 296 302 307 309 315 321 330 333 321 2 350 75 160 192 209
317 315 308 309 316 317 316 315 313 315 316 315 309 305 303 304 301 298 296 300 308 309 316 324 337 347 346 355 58 28 268 182 219
314 316 314 312 311 313 313 315 316 318 315 313 310 308 305 303 300 297 297 299 307 309 316 324 338 2 198 3 111 50 107 345 192
313 312 314 313 310 311 309 307 307 309 310 310 306 306 305 307 302 296 295 295 302 309 312 320 331 355 304 250 192 50 14 266 309
311 311 310 307 309 310 309 309 307 305 305 304 303 302 301 303 304 294 295 297 297 303 306 311 319 330 20 278 239 220 308 232 274
307 309 311 310 311 309 308 309 309 308 308 307 305 303 301 301 303 294 292 293 295 295 301 302 306 313 309 294 276 236 232 238 259